Weather History for Valparaiso, FL

Change the Weather History Date:

Tuesday, October 9, 2012

  Actual Average Record
Temperature  
Mean Temperature 66 °F -  
Max Temperature 78 °F 81 °F 90 °F (1962)
Min Temperature 54 °F 57 °F 40 °F (1964)
Cooling Degree Days 1    
Growing Degree Days 16 (Base 50)    
Moisture  
Dew Point 58 °F    
Average Humidity 75    
Maximum Humidity 92    
Minimum Humidity 52    
Precipitation  
Precipitation 0.00 in - - ()
Sea Level Pressure  
Sea Level Pressure 30.08 in    
Wind  
Wind Speed 7 mph (NNE)    
Max Wind Speed 9 mph    
Max Gust Speed -    
Visibility 10 miles    
Events      
Averages and records for this station are not official NWS values.
T = Trace of Precipitation, MM = Missing Value Source: NWS Daily Summary

Daily Weather History Graph

Daily Weather History Graph

Search for Another Location

Airport:

Trip Planner

Search our weather history database for the weather conditions in past years. The results will help you decide how hot, cold, wet, or windy it might be!

Date:

Astronomy

Oct. 09, 2012 Rise Set
Actual Time 6:44 AM CDT 6:21 PM CDT
Civil Twilight 6:20 AM CDT 6:45 PM CDT
Nautical Twilight 5:52 AM CDT 7:13 PM CDT
Astronomical Twilight 5:24 AM CDT 7:40 PM CDT
Moon 12:45 AM CDT (10/9) 2:26 PM CDT (10/9)
Length of Visible Light 12h 24m
Length of Day
11h 36m
Last Quarter, 36% of the Moon is Illuminated
Oct 9
Last Quarter
Oct 15
New
Oct 21
First Quarter
Oct 29
Full
Nov 6
Last Quarter

Hourly Weather History & Observations

Time (CDT) Temp. Dew Point Humidity Pressure Visibility Wind Dir Wind Speed Gust Speed Precip Events Conditions
12:59 AM 60.4 °F 51.8 °F 73% 30.07 in 10.0 mi North 8.1 mph - N/A   Partly Cloudy
1:55 AM 58.6 °F 52.5 °F 80% 30.07 in 10.0 mi North 8.1 mph - N/A   Clear
2:55 AM 57.4 °F 52.0 °F 82% 30.06 in 10.0 mi North 8.1 mph - N/A   Clear
3:55 AM 56.3 °F 51.6 °F 84% 30.06 in 10.0 mi North 9.2 mph - N/A   Clear
4:55 AM 55.4 °F 51.4 °F 87% 30.07 in 10.0 mi North 8.1 mph - N/A   Clear
5:55 AM 54.5 °F 51.4 °F 89% 30.07 in 10.0 mi North 6.9 mph - N/A   Clear
6:55 AM 54.0 °F 51.8 °F 92% 30.09 in 9.0 mi North 4.6 mph - N/A   Clear
7:56 AM 57.2 °F 53.2 °F 87% 30.11 in 9.0 mi North 5.8 mph - N/A   Clear
8:55 AM 63.1 °F 56.7 °F 79% 30.11 in 7.0 mi NNE 6.9 mph - N/A   Partly Cloudy
9:24 AM 64.4 °F 57.2 °F 77% 30.11 in 7.0 mi ENE 4.6 mph - N/A   Partly Cloudy
9:55 AM 67.3 °F 58.6 °F 74% 30.12 in 7.0 mi NE 5.8 mph - N/A   Partly Cloudy
10:55 AM 73.9 °F 59.5 °F 61% 30.12 in 10.0 mi Variable 2.3 mph - N/A   Partly Cloudy
11:55 AM 77.0 °F 57.9 °F 52% 30.10 in 10.0 mi NNW 8.1 mph - N/A   Partly Cloudy
12:58 PM 78.1 °F 59.0 °F 52% 30.08 in 10.0 mi SSW 4.6 mph - N/A   Partly Cloudy
1:56 PM 76.5 °F 62.1 °F 61% 30.05 in 10.0 mi SSW 9.2 mph - N/A   Partly Cloudy
2:58 PM 77.7 °F 61.3 °F 57% 30.04 in 10.0 mi SSW 9.2 mph - N/A   Partly Cloudy
3:57 PM 77.5 °F 61.5 °F 58% 30.04 in 10.0 mi South 8.1 mph - N/A   Partly Cloudy
4:58 PM 77.0 °F 61.9 °F 59% 30.04 in 10.0 mi South 6.9 mph - N/A   Partly Cloudy
5:55 PM 75.4 °F 63.3 °F 66% 30.04 in 10.0 mi SSW 6.9 mph - N/A   Partly Cloudy
6:56 PM 73.0 °F 63.1 °F 71% 30.04 in 10.0 mi SSW 5.8 mph - N/A   Partly Cloudy
7:56 PM 71.8 °F 63.7 °F 76% 30.06 in 10.0 mi SSW 4.6 mph - N/A   Clear
8:57 PM 66.7 °F 62.2 °F 85% 30.06 in 10.0 mi NE 5.8 mph - N/A   Clear
9:58 PM 65.1 °F 61.5 °F 88% 30.09 in 10.0 mi NNE 4.6 mph - N/A   Clear
10:55 PM 65.3 °F 61.3 °F 87% 30.09 in 10.0 mi NE 4.6 mph - N/A   Clear
11:57 PM 65.7 °F 62.6 °F 90% 30.09 in 10.0 mi ENE 3.5 mph - N/A   Clear